Preview of NWS' New Version of Forecast
This preview is not operational and should not be used for support decisions.

Regional Weather Roundup (RWR)

Issued by Philadelphia/Mt Holly (PHI)

                            
000
ASUS41 KPHI 240112
RWRPHI

REGIONAL WEATHER ROUNDUP
NATIONAL WEATHER SERVICE MOUNT HOLLY NJ
900 PM EDT SAT MAR 23 2019

NOTE:  "FAIR" INDICATES FEW OR NO CLOUDS BELOW 12,000 FEET WITH NO
SIGNIFICANT WEATHER AND/OR OBSTRUCTIONS TO VISIBILITY.

 * = STATION DOES NOT REPORT PRECIPITATION (E.G. RAIN, SNOW, ETC.) 
        OR FOG.

NJZ015>026-240200-
SOUTHERN NEW JERSEY
  
CITY           SKY/WX    TMP DP  RH WIND       PRES   REMARKS
POMONA         FAIR      47  16  29 W13       30.14R                  
WILDWOOD*      FAIR      47  27  45 W10       30.18R                  
MILLVILLE      FAIR      44  16  32 W9        30.16R                  
WRIGHTSTOWN    FAIR      45  13  27 W8        30.10R                  
MOUNT HOLLY    FAIR      47  12  24 W6        30.14R                  
TRENTON        FAIR      45   8  22 NW6       30.12R                  

$$
NJZ001>014-240200-
NORTHERN NEW JERSEY
  
CITY           SKY/WX    TMP DP  RH WIND       PRES   REMARKS
SUSSEX         FAIR      40  12  32 W3        30.10R                  
ANDOVER*         N/A     39  10  30 VRB5      30.11R                  
MORRISTOWN     CLEAR     43  12  28 NW6G16    30.11R                  
NEWARK         FAIR      44   8  23 NW14      30.10R                  
TETERBORO      FAIR      43  13  29 NW13G22   30.09R                  
CALDWELL       FAIR      42   9  25 NW16G30   30.11R                  
SOMERVILLE     FAIR      43  11  27 NW9       30.11R                  
TOMS RIVER*    FAIR      43  13  29 W8        30.13R                  

$$
PAZ043-044-047-054-055-060>062-066>071-240200-
EASTERN PENNSYLVANIA
  
CITY           SKY/WX    TMP DP  RH WIND       PRES   REMARKS
PHILADELPHIA   FAIR      48  11  22 W10       30.15R                  
NORTH PHILA    FAIR      48   9  20 NW12      30.15R                  
BLUE BELL*     FAIR      43  12  28 CALM      30.16R                  
DOYLESTOWN     FAIR      44   9  23 W9        30.12R                  
QUAKERTOWN*    CLEAR     43   9  24 VRB6G12   30.13                   
PERKASIE*      FAIR      43   9  24 NW10G17   30.14R                  
POTTSTOWN      FAIR      41  13  31 W5        30.16R                  
LANCASTER      FAIR      43  17  35 W10       30.17R                  
COATESVILLE    FAIR      41  16  36 W14       30.16R                  
READING        FAIR      45  13  27 W13       30.15R                  
ALLENTOWN      FAIR      44   8  23 W10       30.13R                  
MOUNT POCONO   FAIR      32  12  43 W16       30.07R WCI  21          
HAZLETON       FAIR      36   5  27 NW7       30.14R WCI  30          
LEHIGHTON      FAIR      41   9  26 W3        30.15R                  
WILKES BARRE   FAIR      37  11  34 W6        30.14R WCI  32          

$$
DEZALL-MDZ008-012-015-019-020-240200-
DELAWARE AND EASTERN MARYLAND
  
CITY           SKY/WX    TMP DP  RH WIND       PRES   REMARKS
WILMINGTON     FAIR      46  13  26 W12       30.17R                  
DOVER          FAIR      44  20  37 W8        30.18R                  
GEORGETOWN     FAIR      47  22  37 SW5       30.20R                  
EASTON         CLEAR     48  19  32 W6        30.24R                  
PATUXENT       FAIR      47  20  34 NW9       30.23                   
OCEAN CITY     FAIR      44  22  41 W7        30.20R                  
WALLOPS ISLAND FAIR      45  24  43 NW8       30.22R                  
CAMBRIDGE      CLEAR     46  21  36 NW7       30.22R                  
SALISBURY      FAIR      45  23  42 W6        30.21R                  

$$
PAZ001-021-NYZ056-072-MDZ011-DCZ001-240200-
OTHER NEARBY LOCATIONS
  
CITY           SKY/WX    TMP DP  RH WIND       PRES   REMARKS
HARRISBURG     FAIR      44  18  35 NW10      30.19R                  
STATE COLLEGE  CLEAR     39  12  33 W8        30.20R WCI  34          
WILLIAMSPORT   FAIR      39   6  25 NW7       30.18R WCI  34          
BINGHAMTON     FAIR      30  12  47 W10       30.10R WCI  21          
NEW YORK CITY  FAIR      44  10  25 W8        30.11R                  
BALTIMORE      FAIR      42  18  37 W7        30.21R                  
WASHINGTON DC  FAIR      50  15  24 W7        30.24R                  

$$